Weather History for Somerset, KY

Change the Weather History Date:

Saturday, June 29, 2013

  Actual Average Record
Temperature  
Mean Temperature 72 °F -  
Max Temperature 82 °F 85 °F 102 °F (2012)
Min Temperature 62 °F 64 °F 57 °F (2003)
Cooling Degree Days 7    
Growing Degree Days 22 (Base 50)    
Moisture  
Dew Point 62 °F    
Average Humidity 71    
Maximum Humidity 100    
Minimum Humidity 45    
Precipitation  
Precipitation 0.00 in - - ()
Sea Level Pressure  
Sea Level Pressure 29.69 in    
Wind  
Wind Speed 4 mph (WSW)    
Max Wind Speed 16 mph    
Max Gust Speed 21 mph    
Visibility 10 miles    
Events      
Averages and records for this station are not official NWS values.
T = Trace of Precipitation, MM = Missing Value Source: NWS Daily Summary

Daily Weather History Graph

Daily Weather History Graph

Search for Another Location

Airport:

Trip Planner

Search our weather history database for the weather conditions in past years. The results will help you decide how hot, cold, wet, or windy it might be!

Date:

Astronomy

Jun. 29, 2013 Rise Set
Actual Time 6:21 AM EDT 9:02 PM EDT
Civil Twilight 5:50 AM EDT 9:33 PM EDT
Nautical Twilight 5:12 AM EDT 10:11 PM EDT
Astronomical Twilight 4:29 AM EDT 10:54 PM EDT
Moon 12:40 AM EDT (6/29) 1:21 PM EDT (6/29)
Length of Visible Light 15h 42m
Length of Day
14h 40m
Waning Gibbous, 56% of the Moon is Illuminated
Jun 29
Waning Gibbous
Jun 30
Last Quarter
Jul 8
New
Jul 15
First Quarter
Jul 22
Full

Hourly Weather History & Observations

Time (EDT) Temp. Heat Index Dew Point Humidity Pressure Visibility Wind Dir Wind Speed Gust Speed Precip Events Conditions
12:15 AM 68.0 °F - 66.2 °F 94% 29.72 in 10.0 mi North 3.5 mph - N/A   Clear
12:35 AM 69.8 °F - 64.4 °F 83% 29.71 in 10.0 mi SW 3.5 mph - N/A   Clear
12:55 AM 69.8 °F - 62.6 °F 78% 29.71 in 10.0 mi SSW 3.5 mph - N/A   Clear
1:15 AM 69.8 °F - 62.6 °F 78% 29.71 in 10.0 mi Calm Calm - N/A   Clear
1:35 AM 69.8 °F - 64.4 °F 83% 29.70 in 10.0 mi Calm Calm - N/A   Scattered Clouds
1:55 AM 68.0 °F - 64.4 °F 88% 29.69 in 10.0 mi Calm Calm - N/A   Scattered Clouds
2:15 AM 68.0 °F - 64.4 °F 88% 29.69 in 10.0 mi SW 3.5 mph - N/A   Mostly Cloudy
2:35 AM 69.8 °F - 62.6 °F 78% 29.69 in 10.0 mi WSW 4.6 mph - N/A   Overcast
2:55 AM 68.0 °F - 62.6 °F 83% 29.69 in 10.0 mi Calm Calm - N/A   Overcast
3:15 AM 68.0 °F - 64.4 °F 88% 29.69 in 10.0 mi Calm Calm - N/A   Overcast
3:35 AM 66.2 °F - 64.4 °F 94% 29.68 in 10.0 mi Calm Calm - N/A   Mostly Cloudy
3:55 AM 66.2 °F - 64.4 °F 94% 29.68 in 10.0 mi Calm Calm - N/A   Scattered Clouds
4:15 AM 66.2 °F - 64.4 °F 94% 29.68 in 10.0 mi Calm Calm - N/A   Clear
4:35 AM 64.4 °F - 64.4 °F 100% 29.68 in 10.0 mi Calm Calm - N/A   Clear
4:55 AM 64.4 °F - 64.4 °F 100% 29.68 in 10.0 mi Calm Calm - N/A   Clear
5:15 AM 64.4 °F - 64.4 °F 100% 29.69 in 10.0 mi Calm Calm - N/A   Clear
5:35 AM 64.4 °F - 64.4 °F 100% 29.69 in 5.0 mi Calm Calm - N/A   Clear
5:55 AM 64.4 °F - 64.4 °F 100% 29.70 in 7.0 mi Calm Calm - N/A   Clear
6:15 AM 64.4 °F - 64.4 °F 100% 29.70 in 7.0 mi Calm Calm - N/A   Clear
6:35 AM 62.6 °F - 62.6 °F 100% 29.70 in 5.0 mi Calm Calm - N/A   Clear
6:55 AM 62.6 °F - 62.6 °F 100% 29.70 in 10.0 mi Calm Calm - N/A   Mostly Cloudy
7:15 AM 64.4 °F - 64.4 °F 100% 29.70 in 10.0 mi Calm Calm - N/A   Scattered Clouds
7:35 AM 64.4 °F - 64.4 °F 100% 29.71 in 10.0 mi Calm Calm - N/A   Scattered Clouds
7:55 AM 64.4 °F - 64.4 °F 100% 29.70 in 10.0 mi SSE 3.5 mph - N/A   Mostly Cloudy
8:15 AM 66.2 °F - 64.4 °F 94% 29.70 in 10.0 mi Calm Calm - N/A   Overcast
8:35 AM 68.0 °F - 66.2 °F 94% 29.70 in 10.0 mi Calm Calm - N/A   Overcast
8:55 AM 68.0 °F - 64.4 °F 88% 29.70 in 10.0 mi SSW 4.6 mph - N/A   Mostly Cloudy
9:15 AM 69.8 °F - 64.4 °F 83% 29.70 in 10.0 mi SW 6.9 mph - N/A   Clear
9:35 AM 71.6 °F - 64.4 °F 78% 29.71 in 10.0 mi WSW 10.4 mph - N/A   Clear
9:55 AM 73.4 °F - 64.4 °F 73% 29.70 in 10.0 mi West 8.1 mph - N/A   Clear
10:15 AM 73.4 °F - 62.6 °F 69% 29.70 in 10.0 mi WSW 10.4 mph - N/A   Clear
10:35 AM 75.2 °F - 62.6 °F 65% 29.70 in 10.0 mi West 11.5 mph - N/A   Scattered Clouds
10:55 AM 75.2 °F - 62.6 °F 65% 29.70 in 10.0 mi West 10.4 mph - N/A   Scattered Clouds
11:15 AM 77.0 °F - 60.8 °F 57% 29.70 in 10.0 mi West 6.9 mph - N/A   Clear
11:35 AM 77.0 °F - 60.8 °F 57% 29.70 in 10.0 mi West 4.6 mph - N/A   Clear
11:55 AM 77.0 °F - 60.8 °F 57% 29.70 in 10.0 mi SW 4.6 mph - N/A   Mostly Cloudy
12:15 PM 78.8 °F - 60.8 °F 54% 29.70 in 10.0 mi West 9.2 mph - N/A   Overcast
12:35 PM 78.8 °F - 60.8 °F 54% 29.70 in 10.0 mi West 6.9 mph - N/A   Overcast
12:55 PM 78.8 °F - 59.0 °F 51% 29.70 in 10.0 mi WSW 10.4 mph - N/A   Overcast
1:15 PM 78.8 °F - 60.8 °F 54% 29.70 in 10.0 mi West 9.2 mph - N/A   Overcast
1:35 PM 78.8 °F - 59.0 °F 51% 29.70 in 10.0 mi WSW 11.5 mph - N/A   Overcast
1:55 PM 78.8 °F - 60.8 °F 54% 29.70 in 10.0 mi West 10.4 mph - N/A   Mostly Cloudy
2:15 PM 80.6 °F 81.1 °F 59.0 °F 48% 29.70 in 10.0 mi WSW 12.7 mph 17.3 mph N/A   Scattered Clouds
2:35 PM 80.6 °F 80.8 °F 57.2 °F 45% 29.69 in 10.0 mi WSW 9.2 mph - N/A   Mostly Cloudy
2:55 PM 78.8 °F - 59.0 °F 51% 29.69 in 10.0 mi West 13.8 mph - N/A   Mostly Cloudy
3:15 PM 80.6 °F 80.8 °F 57.2 °F 45% 29.68 in 10.0 mi West 15.0 mph 18.4 mph N/A   Mostly Cloudy
3:35 PM 80.6 °F 80.8 °F 57.2 °F 45% 29.68 in 10.0 mi West 11.5 mph 18.4 mph N/A   Mostly Cloudy
3:55 PM 82.4 °F 82.5 °F 59.0 °F 45% 29.68 in 10.0 mi WSW 10.4 mph 17.3 mph N/A   Scattered Clouds
4:15 PM 80.6 °F 81.1 °F 59.0 °F 48% 29.68 in 10.0 mi West 8.1 mph - N/A   Mostly Cloudy
4:35 PM 80.6 °F 81.5 °F 60.8 °F 51% 29.68 in 10.0 mi WSW 10.4 mph - N/A   Mostly Cloudy
4:55 PM 80.6 °F 81.1 °F 59.0 °F 48% 29.67 in 10.0 mi WSW 12.7 mph - N/A   Mostly Cloudy
5:15 PM 80.6 °F 81.1 °F 59.0 °F 48% 29.67 in 10.0 mi WSW 16.1 mph 20.7 mph N/A   Scattered Clouds
5:35 PM 80.6 °F 81.1 °F 59.0 °F 48% 29.67 in 10.0 mi WSW 12.7 mph 20.7 mph N/A   Scattered Clouds
5:55 PM 80.6 °F 81.1 °F 59.0 °F 48% 29.67 in 10.0 mi SW 10.4 mph - N/A   Scattered Clouds
6:15 PM 80.6 °F 80.8 °F 57.2 °F 45% 29.66 in 10.0 mi SW 10.4 mph 19.6 mph N/A   Scattered Clouds
6:35 PM 80.6 °F 81.1 °F 59.0 °F 48% 29.66 in 10.0 mi WSW 11.5 mph 17.3 mph N/A   Clear
6:55 PM 80.6 °F 81.1 °F 59.0 °F 48% 29.66 in 10.0 mi WSW 10.4 mph 18.4 mph N/A   Scattered Clouds
7:15 PM 80.6 °F 81.1 °F 59.0 °F 48% 29.66 in 10.0 mi WSW 10.4 mph - N/A   Scattered Clouds
7:35 PM 78.8 °F - 60.8 °F 54% 29.66 in 10.0 mi West 6.9 mph - N/A   Scattered Clouds
7:55 PM 78.8 °F - 60.8 °F 54% 29.67 in 10.0 mi WSW 5.8 mph - N/A   Clear
8:15 PM 78.8 °F - 60.8 °F 54% 29.67 in 10.0 mi WSW 4.6 mph - N/A   Scattered Clouds
8:35 PM 77.0 °F - 60.8 °F 57% 29.68 in 10.0 mi WSW 3.5 mph - N/A   Scattered Clouds
8:55 PM 77.0 °F - 60.8 °F 57% 29.67 in 10.0 mi WSW 3.5 mph - N/A   Mostly Cloudy
9:15 PM 75.2 °F - 60.8 °F 61% 29.68 in 10.0 mi Calm Calm - N/A   Scattered Clouds
9:35 PM 73.4 °F - 60.8 °F 65% 29.68 in 10.0 mi Calm Calm - N/A   Mostly Cloudy
9:55 PM 71.6 °F - 62.6 °F 73% 29.68 in 10.0 mi Calm Calm - N/A   Scattered Clouds
10:15 PM 71.6 °F - 62.6 °F 73% 29.69 in 10.0 mi Calm Calm - N/A   Mostly Cloudy
10:35 PM 71.6 °F - 60.8 °F 69% 29.72 in 10.0 mi North 11.5 mph - N/A   Overcast
10:55 PM 69.8 °F - 59.0 °F 68% 29.72 in 10.0 mi North 5.8 mph - N/A   Mostly Cloudy
11:15 PM 69.8 °F - 59.0 °F 68% 29.72 in 10.0 mi Calm Calm - N/A   Mostly Cloudy
11:35 PM 69.8 °F - 59.0 °F 68% 29.72 in 10.0 mi South 3.5 mph - N/A   Mostly Cloudy
11:55 PM 68.0 °F - 60.8 °F 78% 29.71 in 10.0 mi Calm Calm - N/A   Mostly Cloudy